Dilworth, MN

9:45 PM CST on February 25, 2017 (GMT -0600)
Moorhead Municipal

Weather History for KJKJ - June, 2013

Change the Weather History Date:

Monday, June 3, 2013

  Actual Average (KFAR) Record (KFAR)
Temperature  
Mean Temperature 54 °F -  
Max Temperature 64 °F 76 °F 97 °F (1968)
Min Temperature 44 °F 49 °F 32 °F (1883)
Degree Days  
Heating Degree Days 11    
Growing Degree Days 4 (Base 50)    
Moisture  
Dew Point 41 °F    
Average Humidity 60    
Maximum Humidity 100    
Minimum Humidity 26    
Precipitation  
Precipitation 0.00 in - - ()
Sea Level Pressure  
Sea Level Pressure 30.01 in    
Wind  
Wind Speed 6 mph (ESE)    
Max Wind Speed 14 mph    
Max Gust Speed 21 mph    
Visibility 10 miles    
Events Rain    
Averages and records for this station are not official NWS values.
T = Trace of Precipitation, MM = Missing Value Source: NWS Daily Summary

Daily Weather History Graph

Daily Weather History Graph

Search for Another Location

Airport or City:

Trip Planner

Search our weather history database for the weather conditions in past years. The results will help you decide how hot, cold, wet, or windy it might be!

Date:

Astronomy

Jun. 03, 2013 Rise Set
Actual Time 5:34 AM CDT 9:15 PM CDT
Civil Twilight 4:56 AM CDT 9:54 PM CDT
Nautical Twilight 4:04 AM CDT 10:46 PM CDT
Astronomical Twilight 2:53 AM CDT 11:58 PM CDT
Moon 2:49 AM CDT (6/3) 4:32 PM CDT (6/3)
Length of Visible Light 16h 57m
Length of Day
15h 40m
Waning Crescent, 22% of the Moon is Illuminated
Jun 3
Waning Crescent
Jun 8
New
Jun 16
First Quarter
Jun 23
Full
Jun 29
Last Quarter

Hourly Weather History & Observations

Time (CDT) Temp. Windchill Dew Point Humidity Pressure Visibility Wind Dir Wind Speed Gust Speed Precip Events Conditions
12:15 AM 51.8 °F - 46.4 °F 82% 30.06 in 10.0 mi North 3.5 mph - N/A   Clear
12:35 AM 50.0 °F - 46.4 °F 87% 30.06 in 10.0 mi North 3.5 mph - N/A   Clear
12:55 AM 50.0 °F - 46.4 °F 87% 30.05 in 10.0 mi North 5.8 mph - N/A   Clear
1:15 AM 50.0 °F - 44.6 °F 82% 30.05 in 10.0 mi NNE 6.9 mph - N/A   Clear
1:35 AM 50.0 °F - 44.6 °F 82% 30.05 in 10.0 mi NNE 5.8 mph - N/A   Clear
1:55 AM 48.2 °F - 44.6 °F 87% 30.04 in 10.0 mi NE 3.5 mph - N/A   Clear
2:15 AM 48.2 °F - 44.6 °F 87% 30.05 in 10.0 mi NNE 3.5 mph - N/A   Clear
2:35 AM 48.2 °F - 44.6 °F 87% 30.05 in 10.0 mi NNE 4.6 mph - N/A   Clear
2:55 AM 48.2 °F - 44.6 °F 87% 30.04 in 10.0 mi Calm Calm - N/A   Clear
3:15 AM 48.2 °F - 44.6 °F 87% 30.04 in 10.0 mi Calm Calm - N/A   Clear
3:34 AM 48.2 °F - 44.6 °F 87% 30.04 in 10.0 mi Calm Calm - N/A   Clear
3:55 AM 48.2 °F - 44.6 °F 87% 30.03 in 10.0 mi Calm Calm - N/A   Clear
4:15 AM 46.4 °F - 44.6 °F 93% 30.03 in 10.0 mi Calm Calm - N/A   Clear
4:34 AM 46.4 °F - 44.6 °F 93% 30.03 in 10.0 mi Calm Calm - N/A   Clear
4:55 AM 46.4 °F - 44.6 °F 93% 30.03 in 10.0 mi Calm Calm - N/A   Clear
5:15 AM 46.4 °F - 44.6 °F 93% 30.03 in 10.0 mi Calm Calm - N/A   Clear
5:34 AM 44.6 °F - 44.6 °F 100% 30.03 in 10.0 mi Calm Calm - N/A   Clear
5:55 AM 44.6 °F - 44.6 °F 100% 30.03 in 10.0 mi Calm Calm - N/A   Clear
6:15 AM 46.4 °F 45.2 °F 44.6 °F 93% 30.03 in 10.0 mi East 3.5 mph - N/A   Clear
6:34 AM 46.4 °F - 44.6 °F 93% 30.03 in 10.0 mi Calm Calm - N/A   Clear
6:55 AM 48.2 °F - 44.6 °F 87% 30.03 in 10.0 mi East 4.6 mph - N/A   Clear
7:14 AM 50.0 °F - 44.6 °F 82% 30.03 in 10.0 mi ESE 4.6 mph - N/A   Clear
7:35 AM 53.6 °F - 44.6 °F 72% 30.03 in 10.0 mi ESE 8.1 mph - N/A   Clear
7:55 AM 53.6 °F - 42.8 °F 67% 30.03 in 10.0 mi SE 8.1 mph - N/A   Clear
8:14 AM 55.4 °F - 41.0 °F 58% 30.03 in 10.0 mi ESE 6.9 mph - N/A   Clear
8:35 AM 57.2 °F - 39.2 °F 51% 30.04 in 10.0 mi SE 11.5 mph - N/A   Clear
8:55 AM 60.8 °F - 35.6 °F 39% 30.04 in 10.0 mi SE 10.4 mph - N/A   Clear
9:15 AM 60.8 °F - 35.6 °F 39% 30.04 in 10.0 mi SE 11.5 mph - N/A   Clear
9:35 AM 62.6 °F - 30.2 °F 30% 30.04 in 10.0 mi SE 12.7 mph 17.3 mph N/A   Clear
9:54 AM 62.6 °F - 28.4 °F 27% 30.03 in 10.0 mi SE 12.7 mph 18.4 mph N/A   Clear
10:15 AM 64.4 °F - 28.4 °F 26% 30.03 in 10.0 mi SE 12.7 mph 19.6 mph N/A   Clear
10:35 AM 64.4 °F - 30.2 °F 28% 30.03 in 10.0 mi SE 10.4 mph - N/A   Clear
10:54 AM 64.4 °F - 28.4 °F 26% 30.03 in 10.0 mi SE 9.2 mph 17.3 mph N/A   Clear
11:15 AM 62.6 °F - 32.0 °F 32% 30.04 in 10.0 mi SE 8.1 mph - N/A   Clear
11:34 AM 64.4 °F - 32.0 °F 30% 30.03 in 10.0 mi SE 10.4 mph - N/A   Clear
11:54 AM 64.4 °F - 33.8 °F 32% 30.03 in 10.0 mi SE 9.2 mph - N/A   Clear
12:15 PM 62.6 °F - 32.0 °F 32% 30.03 in 10.0 mi SE 6.9 mph - N/A   Clear
12:35 PM 62.6 °F - 32.0 °F 32% 30.01 in 10.0 mi ESE 9.2 mph - N/A   Clear
12:54 PM 62.6 °F - 33.8 °F 34% 30.00 in 10.0 mi SE 9.2 mph - N/A   Clear
1:15 PM 64.4 °F - 32.0 °F 30% 30.01 in 10.0 mi SSE 13.8 mph 17.3 mph N/A   Clear
1:35 PM 62.6 °F - 33.8 °F 34% 30.00 in 10.0 mi SE 10.4 mph - N/A   Clear
1:54 PM 64.4 °F - 32.0 °F 30% 30.00 in 10.0 mi ESE 10.4 mph - N/A   Clear
2:15 PM 64.4 °F - 33.8 °F 32% 29.99 in 10.0 mi ESE 11.5 mph - N/A   Clear
2:34 PM 62.6 °F - 33.8 °F 34% 29.98 in 10.0 mi SE 8.1 mph - N/A   Clear
2:55 PM 62.6 °F - 33.8 °F 34% 29.98 in 10.0 mi ESE 10.4 mph - N/A   Clear
3:15 PM 62.6 °F - 35.6 °F 37% 29.97 in 10.0 mi ESE 10.4 mph - N/A   Scattered Clouds
3:35 PM 62.6 °F - 39.2 °F 42% 29.98 in 10.0 mi ESE 8.1 mph - N/A   Mostly Cloudy
3:55 PM 62.6 °F - 42.8 °F 48% 29.97 in 10.0 mi ESE 6.9 mph - N/A   Light Drizzle
4:15 PM 60.8 °F - 44.6 °F 55% 29.96 in 10.0 mi ESE 6.9 mph - N/A   Light Drizzle
4:35 PM 62.6 °F - 44.6 °F 52% 29.95 in 10.0 mi East 6.9 mph - N/A   Mostly Cloudy
4:55 PM 62.6 °F - 42.8 °F 48% 29.95 in 10.0 mi ESE 6.9 mph - N/A Rain Light Rain
5:15 PM 62.6 °F - 42.8 °F 48% 29.95 in 10.0 mi SE 6.9 mph - N/A   Mostly Cloudy
5:35 PM 62.6 °F - 44.6 °F 52% 29.96 in 10.0 mi SSE 4.6 mph - N/A   Mostly Cloudy
5:55 PM 60.8 °F - 48.2 °F 63% 29.97 in 10.0 mi Calm Calm - N/A   Overcast
6:14 PM 60.8 °F - 46.4 °F 59% 29.96 in 10.0 mi East 3.5 mph - N/A   Overcast
6:35 PM 60.8 °F - 46.4 °F 59% 29.97 in 10.0 mi East 3.5 mph - N/A   Overcast
6:55 PM 60.8 °F - 46.4 °F 59% 29.98 in 10.0 mi ENE 5.8 mph - N/A   Overcast
7:14 PM 60.8 °F - 48.2 °F 63% 29.99 in 10.0 mi ENE 3.5 mph - N/A   Overcast
7:35 PM 60.8 °F - 48.2 °F 63% 30.00 in 10.0 mi East 4.6 mph - N/A   Overcast
7:55 PM 60.8 °F - 46.4 °F 59% 30.00 in 10.0 mi East 6.9 mph - N/A   Overcast
8:15 PM 60.8 °F - 46.4 °F 59% 29.99 in 10.0 mi East 8.1 mph - N/A   Overcast
8:35 PM 59.0 °F - 46.4 °F 63% 29.99 in 10.0 mi East 8.1 mph - N/A   Overcast
8:54 PM 59.0 °F - 46.4 °F 63% 29.99 in 10.0 mi ESE 9.2 mph - N/A   Overcast
9:15 PM 60.8 °F - 42.8 °F 52% 29.96 in 10.0 mi ESE 12.7 mph 18.4 mph N/A   Mostly Cloudy
9:35 PM 59.0 °F - 42.8 °F 55% 29.95 in 10.0 mi ESE 13.8 mph 20.7 mph N/A   Mostly Cloudy
9:54 PM 60.8 °F - 42.8 °F 52% 29.97 in 10.0 mi ESE 12.7 mph 17.3 mph N/A   Overcast
10:15 PM 60.8 °F - 41.0 °F 48% 29.96 in 10.0 mi ESE 13.8 mph 19.6 mph N/A   Overcast
10:35 PM 60.8 °F - 42.8 °F 52% 29.96 in 10.0 mi ESE 13.8 mph - N/A   Overcast
10:54 PM 60.8 °F - 42.8 °F 52% 30.00 in 10.0 mi East 10.4 mph 17.3 mph N/A   Overcast
11:15 PM 59.0 °F - 44.6 °F 59% 30.00 in 10.0 mi East 8.1 mph - N/A Rain Light Rain
11:34 PM 57.2 °F - 46.4 °F 67% 30.00 in 10.0 mi East 8.1 mph - N/A   Light Drizzle
11:55 PM 57.2 °F - 48.2 °F 72% 30.00 in 10.0 mi East 3.5 mph - N/A Rain Light Rain